Probability
0 0 0 1 1 1 1 1 3 7 11 13 14 19 24 27 30 32 34 35 35 34 32 29 27 24 17 12 9 9 9 7 6 5 4 4 5 5 4 2 0 0 0 0
0 0 1 2 3 3 3 4 6 10 15 16 17 22 28 32 35 36 36 38 39 39 37 34 30 24 18 13 11 11 10 7 6 6 5 4 5 6 5 3 1 1 0 0
0 0 1 2 3 4 6 9 13 15 18 21 23 27 33 38 41 42 41 42 42 42 41 40 35 27 19 15 13 12 10 8 6 6 5 4 5 6 6 4 3 2 1 1
0 0 1 2 3 5 11 18 21 21 23 26 30 32 36 40 41 41 42 43 41 39 40 41 38 30 23 19 17 14 11 8 7 7 5 4 5 6 6 5 4 4 3 3
0 0 1 3 5 8 17 27 29 29 30 32 35 39 39 38 37 38 39 39 38 37 39 39 37 32 26 23 20 16 12 9 8 7 5 5 7 7 7 6 6 6 6 6
0 0 2 5 9 13 20 27 30 32 34 35 38 40 38 36 37 38 39 39 39 39 39 36 33 31 28 24 21 15 10 8 8 7 6 7 8 8 8 7 7 7 7 7
0 1 3 7 11 14 18 22 26 31 33 34 34 34 33 34 36 38 39 41 41 39 35 31 29 30 29 26 21 15 9 8 8 8 7 7 7 7 7 8 9 9 8 7
0 1 4 8 10 12 14 19 24 29 31 33 33 33 31 31 32 34 35 37 37 35 32 28 29 30 30 26 21 15 11 9 9 8 7 6 6 6 7 7 8 9 8 7
6 7 8 9 10 11 12 16 20 24 28 33 34 32 29 27 27 27 26 27 29 30 28 26 28 28 25 21 18 14 11 9 9 8 7 6 6 6 6 7 7 7 6 5
15 15 13 11 11 12 13 15 17 19 25 30 30 27 25 23 22 22 22 22 24 25 24 24 24 24 21 18 15 11 9 7 7 7 6 6 6 6 6 6 6 6 6 5
16 15 14 13 13 15 17 19 20 22 24 25 24 22 20 20 20 20 22 23 22 21 20 19 19 18 18 15 12 9 7 6 5 6 6 6 5 5 5 5 4 4 5 5
13 13 14 15 15 17 20 22 25 25 25 24 22 19 19 19 18 19 20 21 20 18 15 14 14 14 13 11 9 7 6 6 5 5 6 5 4 4 4 4 3 3 4 4
12 13 15 15 14 15 18 22 25 24 22 20 20 19 19 18 16 15 15 16 16 13 11 11 11 10 9 8 7 7 6 6 6 6 6 5 3 3 3 3 2 1 2 2
8 10 12 12 10 11 14 17 19 17 14 14 15 16 16 14 12 11 10 11 11 10 9 10 10 9 8 7 6 6 6 6 6 6 6 4 3 3 3 3 2 1 1 1
4 4 6 7 6 7 9 11 12 10 8 8 9 10 10 8 7 6 7 9 9 9 9 10 10 9 7 6 6 5 5 6 6 5 4 3 2 2 3 3 3 2 1 0
2 2 2 2 2 3 5 7 7 6 5 4 4 4 5 6 5 4 6 8 8 8 8 8 7 6 4 3 3 3 3 4 4 2 1 1 1 1 3 3 3 2 1 0
1 0 0 0 0 1 2 3 4 4 3 3 3 2 2 4 4 3 3 4 4 4 4 4 3 2 1 1 1 1 1 1 1 0 0 0 0 1 2 3 3 2 1 0
0 0 0 0 0 0 1 2 2 2 2 2 2 1 0 1 1 1 1 1 1 1 1 1 0 0 0 0 0 0 0 0 0 0 0 0 0 0 1 1 2 2 1 0
1 1 1 1 1 1 2 2 1 1 1 1 1 0 0 0 0 0 0 0 0 0 0 0 0 0 0 0 0 0 0 0 0 0 0 0 0 0 0 0 1 1 0 0
2 2 2 2 1 1 2 2 1 0 0 0 0 0 0 0 0 0 0 0 0 0 0 0 0 0 0 0 0 0 0 0 0 0 0 0 0 0 0 0 0 0 0 0
1 1 1 1 1 1 1 1 0 0 0 0 0 0 0 0 0 0 0 0 0 0 0 0 0 0 0 0 0 0 0 0 0 0 0 0 0 0 0 0 0 0 0 0
0 0 0 0 0 0 0 0 0 0 0 0 0 0 0 0 0 0 0 0 0 0 0 0 0 0 0 0 0 0 0 0 0 0 0 0 0 0 0 0 0 0 0 0
1 1 0 0 0 0 0 0 0 0 0 0 0 0 0 0 0 0 0 0 0 0 0 0 0 0 0 0 0 0 0 0 0 0 0 0 0 0 0 0 0 0 0 0
0 0 0 0 0 0 0 0 0 0 0 0 0 0 0 0 0 0 0 0 0 0 0 0 0 0 0 0 0 0 0 0 0 0 0 0 0 0 0 0 0 0 0 0
0 0 0 0 0 0 0 0 0 0 0 0 0 0 0 0 0 0 0 0 0 0 0 0 0 0 0 0 0 0 0 0 0 0 0 0 0 0 0 0 0 0 0 0
0 0 0 0 0 0 0 0 0 0 0 0 0 0 0 0 0 0 0 0 0 0 0 0 0 0 0 0 0 0 0 0 0 0 0 0 0 0 0 0 0 0 0 0
0 0 0 0 0 0 0 0 0 0 0 0 0 0 0 0 0 0 0 0 0 0 0 0 0 0 0 0 0 0 0 0 0 0 0 0 0 0 0 0 0 0 0 0
Wind_Speed
4 3 1 1 4 2 3 7 8 8 8 8 8 8 9 9 9 9 8 7 7 7 6 6 6 5 5 5 5 5 5 4 3 4 4 4 4 4 4 4 4 3 3 3
2 3 3 3 4 3 2 3 5 6 4 4 4 5 5 6 8 8 7 7 7 6 6 6 6 6 6 6 6 6 6 5 4 4 5 4 4 4 4 4 3 4 3 3
1 3 5 4 4 1 1 1 5 6 6 6 5 6 6 7 9 8 7 6 6 6 7 6 6 6 6 6 6 6 6 6 5 5 5 4 4 4 4 4 4 4 3 3
3 4 2 7 2 3 5 5 3 4 6 8 7 5 4 5 8 7 7 7 6 5 5 5 5 5 5 6 6 6 5 6 6 6 5 5 5 4 4 4 4 3 3 3
4 2 3 5 4 2 5 5 4 6 6 6 6 7 5 2 4 6 7 7 7 6 6 5 6 6 6 6 5 6 5 5 5 6 6 5 5 4 4 4 4 3 3 4
5 3 3 4 5 1 7 3 4 4 5 5 5 5 1 0 2 3 4 5 5 6 6 6 5 6 7 6 5 4 4 5 5 5 6 5 4 4 4 4 4 4 4 3
4 2 4 5 5 3 5 4 2 3 5 4 3 4 4 2 3 4 5 5 5 6 5 5 5 6 6 5 4 4 5 5 5 5 5 5 4 4 5 5 5 4 4 3
4 3 5 5 3 4 5 3 3 5 4 5 6 6 5 5 5 5 5 5 6 5 4 3 5 6 6 5 4 5 6 6 5 4 4 5 5 4 4 5 5 4 4 3
6 5 3 1 4 4 5 5 4 6 5 7 7 6 6 5 5 5 5 5 5 5 5 3 3 5 6 4 5 6 6 5 5 5 4 4 4 4 4 4 4 3 3 3
4 2 2 4 4 3 4 6 6 7 7 7 7 6 6 5 5 5 5 4 4 5 4 3 3 3 4 5 6 7 6 5 5 5 4 4 3 3 3 3 3 3 3 3
4 2 5 6 4 3 4 6 7 7 6 7 8 6 6 5 4 4 5 4 4 4 4 3 3 3 3 4 6 6 6 5 5 4 5 5 4 3 2 1 2 4 4 4
3 3 3 1 2 3 5 5 6 7 6 5 6 6 6 5 4 4 4 4 4 4 4 4 4 4 3 3 5 7 5 4 4 4 4 4 5 4 8 5 5 4 4 5
4 2 4 3 4 4 5 6 7 7 7 6 5 6 6 5 4 4 4 4 4 4 4 4 4 4 3 3 4 5 5 5 4 4 4 4 3 4 4 5 9 8 6 6
5 5 5 3 3 4 5 7 8 7 6 6 6 6 6 5 4 4 4 3 3 4 4 4 4 3 2 4 4 5 5 5 5 4 4 4 3 3 4 5 3 2 4 4
5 5 4 3 4 5 5 6 7 6 5 5 5 6 6 6 5 4 3 3 4 4 4 4 4 2 2 3 4 5 4 4 4 3 3 3 3 3 3 4 4 3 2 2
4 6 5 5 4 3 4 5 6 4 4 4 5 4 4 5 5 5 3 3 4 4 3 3 3 2 2 4 4 3 3 6 6 4 3 3 3 3 3 3 3 3 3 2
5 3 2 1 1 2 2 3 4 4 4 4 4 4 4 5 5 4 2 2 3 3 3 3 2 2 3 4 4 3 3 4 6 4 3 3 3 3 3 3 3 3 3 3
4 3 3 3 3 3 3 4 4 4 4 4 5 4 4 4 4 3 3 2 3 3 2 2 2 2 2 3 3 3 3 3 3 3 3 3 3 3 3 3 4 4 2 2
5 4 4 3 3 4 3 3 3 3 4 4 5 4 3 3 3 3 3 4 4 2 1 1 3 3 3 3 4 3 3 3 3 3 3 4 4 3 3 3 3 3 3 3
4 4 4 4 4 4 4 3 4 4 4 4 4 4 3 3 3 3 3 2 1 2 2 3 3 3 3 3 4 3 3 4 4 3 3 3 3 3 3 3 3 3 3 3
4 4 4 4 4 3 3 4 5 4 4 4 4 4 3 3 3 3 3 2 0 2 3 4 3 2 2 2 3 3 3 3 3 3 3 3 2 2 2 2 3 3 3 2
2 3 3 3 3 2 2 3 4 4 4 4 4 4 4 3 3 3 2 2 2 3 3 2 2 2 3 3 2 3 3 3 3 2 2 2 2 2 2 2 2 3 3 3
1 2 2 2 2 2 2 3 3 4 4 4 4 4 4 3 3 3 2 1 2 4 3 2 3 5 5 3 3 3 3 2 2 2 2 2 2 2 2 2 2 2 2 2
1 2 2 2 3 3 3 3 3 4 4 4 3 4 4 3 2 2 2 4 5 5 3 2 4 5 4 3 2 2 2 2 2 2 2 1 1 1 1 2 1 1 1 2
2 2 2 3 3 3 3 3 4 4 4 3 3 3 2 2 3 2 3 4 5 5 2 2 3 3 3 2 2 2 2 2 2 2 2 2 1 1 1 1 2 1 1 1
1 2 2 2 3 3 3 3 3 3 3 3 2 2 2 2 3 3 3 3 3 3 2 1 2 2 2 2 2 2 2 2 3 3 2 2 2 2 2 1 2 2 1 1
2 2 2 3 2 2 3 3 3 3 3 3 3 2 3 3 3 3 3 2 2 2 2 1 1 1 2 2 2 2 2 2 2 2 2 2 2 2 2 2 2 1 1 1
Wind_Direction
189 204 154 294 284 260 187 185 180 200 187 208 200 171 158 152 147 149 158 165 166 163 163 162 159 164 164 161 153 146 137 135 137 126 114 105 99 97 99 98 101 101 94 84
8 7 18 339 313 297 253 195 167 149 192 209 173 133 130 142 142 149 162 169 164 157 151 156 160 164 164 163 156 148 143 142 138 128 117 115 113 109 103 97 93 92 92 92
322 347 38 324 285 246 274 300 157 172 192 154 136 138 155 156 144 148 155 155 153 160 158 166 167 159 163 161 150 148 148 146 143 135 133 135 127 116 111 106 95 88 87 96
101 57 227 249 287 97 82 31 71 124 142 145 153 148 129 141 145 150 153 148 150 163 159 159 154 151 150 145 144 146 145 147 148 144 143 136 127 125 122 114 105 100 94 101
111 140 275 303 334 21 95 25 20 102 117 130 125 87 45 58 135 158 160 155 154 158 155 149 150 149 139 137 139 141 147 148 148 146 142 137 135 133 127 116 106 97 91 97
116 138 213 263 299 306 100 48 340 100 127 134 110 106 217 356 93 115 117 124 132 135 131 136 143 138 134 138 136 143 149 143 140 139 138 140 141 131 122 118 116 111 97 85
133 160 254 270 299 41 101 207 271 111 129 127 121 154 166 121 85 88 97 104 111 118 126 137 133 129 131 133 142 140 130 125 124 130 136 135 129 126 126 122 117 114 105 84
137 153 250 295 38 107 172 177 114 98 98 103 104 97 91 89 90 86 84 87 95 99 100 104 117 125 129 139 138 127 124 123 122 121 126 128 127 126 130 131 125 121 112 94
159 188 232 14 106 137 141 120 110 106 103 108 105 99 95 88 91 95 95 93 95 103 94 84 104 130 136 140 129 127 125 123 116 108 105 115 127 133 133 133 134 139 135 126
86 61 64 59 72 77 95 105 106 109 112 112 108 108 101 98 91 91 91 92 93 97 97 90 92 107 130 134 128 128 127 124 121 116 103 89 87 106 131 143 148 150 149 147
83 79 52 30 33 65 86 89 90 94 101 111 115 108 104 101 94 90 90 90 95 103 104 96 86 90 109 123 126 124 125 125 120 114 112 94 77 58 82 98 158 164 169 162
168 209 140 150 10 54 84 95 103 101 88 90 109 113 108 102 98 95 93 93 91 92 98 97 92 86 83 99 122 127 126 126 125 121 117 116 112 84 51 62 73 94 124 133
140 143 117 96 53 54 77 80 84 92 101 98 91 98 96 98 94 95 93 93 101 110 108 103 100 97 97 105 120 130 136 137 133 131 132 133 132 128 112 57 56 66 84 105
96 91 72 54 51 50 73 83 80 79 85 97 103 101 98 90 87 96 102 106 108 111 111 108 103 100 114 121 121 125 131 137 138 139 141 140 141 141 143 140 122 75 56 85
67 87 107 90 66 60 63 83 83 81 86 85 90 102 110 114 117 114 110 107 102 103 107 110 109 105 110 117 121 126 128 131 132 131 137 140 137 133 134 137 136 133 115 78
86 80 81 72 67 66 71 93 99 99 98 102 98 102 107 110 107 101 101 120 119 118 114 109 115 124 112 115 118 117 123 133 133 132 130 131 133 135 139 140 141 145 153 159
97 83 79 107 111 89 108 118 117 124 119 118 119 108 99 98 101 105 114 121 123 123 120 118 122 118 117 119 119 122 117 127 127 123 128 135 138 143 148 149 154 159 171 176
114 125 149 157 156 140 120 104 109 113 126 134 124 110 111 123 132 138 141 123 99 86 90 121 126 118 113 117 121 123 121 122 123 126 125 125 130 141 147 154 162 163 166 170
89 92 88 92 118 129 129 131 128 125 127 127 122 121 126 134 137 132 125 118 122 126 137 106 110 109 106 115 116 118 123 125 123 123 120 123 122 126 135 145 156 163 166 168
61 73 76 73 80 97 107 110 111 110 112 116 116 117 118 126 125 119 119 118 145 166 159 126 112 103 97 100 103 107 120 127 128 130 131 132 136 141 146 152 158 166 176 181
66 72 72 74 77 79 91 105 113 113 117 120 123 132 137 135 126 123 121 112 58 111 109 102 94 93 92 105 106 107 117 124 127 131 136 140 144 152 162 169 172 179 187 189
84 92 86 87 91 79 62 95 112 118 116 113 113 116 115 110 103 95 96 134 141 117 103 91 89 95 94 92 97 106 114 118 123 131 136 142 151 158 168 174 174 179 182 184
91 104 99 103 106 89 78 97 110 118 117 113 113 113 114 118 120 120 113 99 115 110 101 93 99 95 85 75 81 96 114 124 129 138 145 148 160 167 167 168 169 170 171 183
91 97 103 108 102 98 99 100 101 104 104 100 102 111 114 107 82 72 113 117 111 104 91 94 97 88 78 70 73 90 106 116 124 127 133 138 147 153 158 159 158 166 179 182
101 101 107 107 107 115 116 109 99 97 96 95 92 90 92 110 127 128 113 112 113 103 92 92 95 81 69 65 75 86 93 97 99 100 100 109 112 112 119 135 144 140 137 143
115 121 116 121 130 130 126 121 116 117 116 109 92 87 92 93 102 106 105 110 112 109 104 96 93 83 76 72 74 86 95 95 88 85 91 96 94 96 98 108 121 131 141 154
85 89 95 93 93 108 113 115 117 118 122 125 120 112 111 106 103 109 109 105 102 104 104 96 93 100 102 91 78 69 69 75 85 93 92 91 92 95 98 110 114 110 101 100